Tracking 23732 objects as of 28-Sep-2021
HD Live streaming from Space Station
objects crossing your sky now

DELTA 1 DEB

Track DELTA 1 DEB now!
10-day predictions


NORAD ID: 12230
Int'l Code: 1978-026BX
Perigee: 626.9 km
Apogee: 722.8 km
Inclination: 97.9 °
Period: 98.1 minutes
Semi major axis: 7045 km
RCS: 0.0615 m2 (small)
Launch date: March 5, 1978
Source: United States (US)
Launch site: AIR FORCE WESTERN TEST RANGE (AFWTR)

Note: This is SATELLITE DEBRIS
aabbcc
Your satellite tracking list
Your tracking list is empty




NASA's NSSDC Master Catalog

Two Line Element Set (TLE):
1 12230U 78026BX  21270.93285541  .00000927  00000-0  16503-3 0  9996
2 12230  97.8618 261.0758 0068007 269.9092  89.4321 14.67922345125947
Source of the keplerian elements: AFSPC